XTAR-EUR

Last updated on Thu Nov 21 2024 00:02:40 GMT+0000 (Coordinated Universal Time)

1 28542U 05005A 24324.98608817 .00000152 00000+0 00000+0 0 9999 2 28542 2.8507 83.8470 0005587 177.3941 182.2936 1.00274039 72435
UTC large
Height (km)
Speed (km/s)
/
Latitude / Longitude
Inclination (degrees)
Orbital Period (minutes)
Azimuth
Elevation
Range (km)
Doppler Factor

Next 0 passes for location: London (51.5072 / 0.1276)

Sorry there are no passes over London.